Regional Weather Roundup
Issued by NWS

Home | Current Version | Previous Version | Text Only | Print | Product List | Glossary Off
Versions: 1 2 3 4 5 6 7 8 9 10 11 12 13 14 15 16 17 18 19 20 21 22 23 24 25 26 27 28 29 30 31 32 33 34 35 36 37 38 39 40 41 42 43 44 45 46 47 48 49 50

000
ASUS43 KIND 271209
RWRIN

WEATHER ROUNDUP FOR INDIANA
NATIONAL WEATHER SERVICE INDIANAPOLIS IN
800 AM EDT TUE JUN 27 2017

NOTE: "FAIR" INDICATES FEW OR NO CLOUDS BELOW 12,000 FEET WITH NO
SIGNIFICANT WEATHER AND/OR OBSTRUCTIONS TO VISIBILITY.

* - STATION DOES NOT REPORT WEATHER SUCH AS PRECIPITATION OR FOG.

+ - STATION NOT QUALITY CONTROLLED BY THE NATIONAL WEATHER SERVICE.
    USE DATA WITH CAUTION...ESPECIALLY DEWPOINT AND RELATIVE
    HUMIDITY OBSERVATIONS.

INZ001>003-010>013-019-020-271300-
NORTHWEST INDIANA

CITY           SKY/WX    TMP DP  RH WIND       PRES   REMARKS
GARY /AIRPORT/ SUNNY     57  48  72 CALM      30.14R
KNOX *+        SUNNY     54  43  66 CALM      30.13R
LA PORTE +     SUNNY     55  51  87 W5        30.14R
MICHIGAN CITY+ SUNNY     55  52  88 CALM      30.13R
MONTICELLO +   SUNNY     55  49  81 W3        30.14R
6HR MIN TEMP:  49; 6HR MAX TEMP:  55;

VALPARAISO     SUNNY     57  50  77 W5        30.14R
6HR MIN TEMP:  51; 6HR MAX TEMP:  57;


$$

LMZ046-743>745-271300-
SOUTHERN LAKE MICHIGAN

STATION/POSITION TIME  TEMP    WIND        PRES    WAVE
                       AIR SEA DIR/SP/G            HT
                 (UTC) (F)     (DEG/KT/KT) (MB)    (FT)
BURNS HARBOR     1140   60     240/  7/  8 1020.7R
MICHIGAN CITY    1140   61     260/ 10/ 11   N/A
5NW MICH CITY    1200   61 65  280/  8/ 10   N/A     2

$$

INZ004-005-014>016-021>024-271300-
NORTH CENTRAL INDIANA

CITY           SKY/WX    TMP DP  RH WIND       PRES   REMARKS
GOSHEN         SUNNY     55  50  83 W3        30.12R
6HR MIN TEMP:  49; 6HR MAX TEMP:  55;

LOGANSPORT +   SUNNY     54  48  82 NW3       30.15R
PERU/GRISSOM   SUNNY     55  51  86 NW6       30.13R
6HR MIN TEMP:  50; 6HR MAX TEMP:  55;

ROCHESTER +    SUNNY     55  50  82 NW6       30.14R
SOUTH BEND     SUNNY     54  51  90 SW3       30.13R
6HR MIN TEMP:  47; 6HR MAX TEMP:  54;

WARSAW +       SUNNY     54  50  87 NW5       30.13R

$$

INZ006>009-017-018-025>027-271300-
NORTHEAST INDIANA

CITY           SKY/WX    TMP DP  RH WIND       PRES   REMARKS
AUBURN +       SUNNY     54  50  87 W6        30.12R
FORT WAYNE     MOSUNNY   56  50  80 NW8       30.13R
6HR MIN TEMP:  51; 6HR MAX TEMP:  56;

HUNTINGTON +   SUNNY     54  52  93 NW5       30.13R
6HR MIN TEMP:  50; 6HR MAX TEMP:  54;

KENDALLVILLE + SUNNY     54  50  87 NW5       30.11S

$$

INZ028-029-035-036-043>045-051>053-271300-
WEST CENTRAL INDIANA

CITY           SKY/WX    TMP DP  RH WIND       PRES   REMARKS
CRAWFORDSVL +  SUNNY     52  52 100 CALM      30.16R
6HR MIN TEMP:  45; 6HR MAX TEMP:  52;

GREENCASTLE +  SUNNY     54  50  87 CALM      30.16R
LAFAYETTE      MOSUNNY   51  51 100 CALM      30.15R
6HR MIN TEMP:  47; 6HR MAX TEMP:  51;

TERRE HAUTE    SUNNY     56  51  84 CALM      30.16R
6HR MIN TEMP:  48; 6HR MAX TEMP:  56;


$$

INZ030>032-037>040-046>048-054>057-064-065-271300-
CENTRAL INDIANA

CITY           SKY/WX    TMP DP  RH WIND       PRES   REMARKS
CP ATTERBURY + SUNNY     52  50  93 CALM      30.16R
COLUMBUS       SUNNY     55  50  82 CALM      30.17R
FRANKFORT +    SUNNY     57  54  89 W3        30.16R
6HR MIN TEMP:  50; 6HR MAX TEMP:  57;

GREENWOOD *+   SUNNY     56  51  84 CALM      30.16R
INDIANAPOLIS   SUNNY     56  51  84 W5        30.15R
6HR MIN TEMP:  51; 6HR MAX TEMP:  56;

-EAGLE CREEK   SUNNY     58  51  78 NW5       30.15R
6HR MIN TEMP:  52; 6HR MAX TEMP:  58;

KOKOMO +       SUNNY     56  50  80 W6        30.15R
6HR MIN TEMP:  50; 6HR MAX TEMP:  56;

MARION +       SUNNY     55  50  82 NW3       30.15R
MT COMFORT *+  SUNNY     54  52  94 W5        30.14S
SHELBYVILLE    SUNNY     58  51  78 CALM      30.15R
6HR MIN TEMP:  53; 6HR MAX TEMP:  58;

ZIONSVILLE +   SUNNY     53  52  95 W3        30.16R
6HR MIN TEMP:  48; 6HR MAX TEMP:  53;


$$

INZ033-034-041-042-049-050-058-059-271300-
EAST CENTRAL INDIANA

CITY           SKY/WX    TMP DP  RH WIND       PRES   REMARKS
MUNCIE         SUNNY     58  51  78 W6        30.14R
6HR MIN TEMP:  52; 6HR MAX TEMP:  58;

RICHMOND +     SUNNY     52  50  93 SW5       30.15R FOG

$$

INZ060-061-067>069-081>083-085>088-271300-
SOUTHWEST INDIANA

CITY           SKY/WX    TMP DP  RH WIND       PRES   REMARKS
EVANSVILLE     SUNNY     59  54  83 CALM      30.16R
6HR MIN TEMP:  55; 6HR MAX TEMP:  62;

HUNTINGBURG *+ SUNNY     58  56  93 CALM      30.16R
6HR MIN TEMP:  54; 6HR MAX TEMP:  59;

WASHINGTON +   SUNNY     56  54  94 CALM      30.16R
6HR MIN TEMP:  51; 6HR MAX TEMP:  56;


$$

INZ062-063-066-070>080-084-089>092-271300-
SOUTH CENTRAL AND SOUTHEAST INDIANA

CITY           SKY/WX    TMP DP  RH WIND       PRES   REMARKS
BEDFORD +      SUNNY     55  52  88 CALM      30.15R
BLOOMINGTON    SUNNY     56  51  84 CALM      30.15R
6HR MIN TEMP:  49; 6HR MAX TEMP:  56;

MADISON *+     SUNNY     59  52  77 CALM      30.17R
NORTH VERNON + SUNNY     54  52  94 CALM      30.16R
SEYMOUR +      SUNNY     57  55  94 CALM      30.16R

$$





USA.gov is the U.S. government's official web portal to all federal, state and local government web resources and services.